Weather History for KMMV - October, 2011

Change the Weather History Date:

Saturday, October 29, 2011

  Actual Average Record
Temperature  
Mean Temperature 54 °F 48 °F  
Max Temperature 61 °F 57 °F 73 °F (1931)
Min Temperature 46 °F 39 °F 24 °F (1970)
Degree Days  
Heating Degree Days 11 17  
Month to date heating degree days 285 372  
Since 1 July heating degree days 388 588  
Cooling Degree Days 0 0  
Month to date cooling degree days 0 0  
Year to date cooling degree days 251 214  
Growing Degree Days 3 (Base 50)    
Moisture  
Dew Point 50 °F    
Average Humidity 86    
Maximum Humidity 100    
Minimum Humidity 72    
Precipitation  
Precipitation 0.00 in 0.13 in 1.25 in (1997)
Month to date precipitation 2.00 2.87  
Year to date precipitation 25.77 26.58  
Snow  
Snow 0.00 in - - ()
Month to date snowfall 0.0  
Snow Depth 0.00 in    
Sea Level Pressure  
Sea Level Pressure 30.25 in    
Wind  
Wind Speed 2 mph (NNW)    
Max Wind Speed 6 mph    
Max Gust Speed 8 mph    
Visibility 6 miles    
Events Fog    
T = Trace of Precipitation, MM = Missing Value Source: NWS Daily Summary

Daily Weather History Graph

Daily Weather History Graph

Search for Another Location

Airport or City:

Trip Planner

Search our weather history database for the weather conditions in past years. The results will help you decide how hot, cold, wet, or windy it might be!

Date:

Astronomy

Oct. 29, 2011 Rise Set
Actual Time 7:47 AM PDT 6:04 PM PDT
Civil Twilight 7:16 AM PDT 6:35 PM PDT
Nautical Twilight 6:41 AM PDT 7:09 PM PDT
Astronomical Twilight 6:07 AM PDT 7:44 PM PDT
Moon 11:23 AM PDT (10/29) 8:25 PM PDT (10/29)
Length of Visible Light 11h 18m
Length of Day
10h 17m
Waxing Crescent, 12% of the Moon is Illuminated
Oct 29
Waxing Crescent
Nov 2
First Quarter
Nov 10
Full
Nov 18
Last Quarter
Nov 24
New

Hourly Weather History & Observations

Time (PDT) Temp. Windchill Dew Point Humidity Pressure Visibility Wind Dir Wind Speed Gust Speed Precip Events Conditions
12:51 AM 53.6 °F - 51.8 °F 94% 30.17 in 9.0 mi NNW 3.5 mph - N/A   Mostly Cloudy
12:52 AM 53.1 °F - 52.0 °F 96% 30.17 in 8.0 mi Calm Calm - N/A   Mostly Cloudy
1:53 AM 53.1 °F - 52.0 °F 96% 30.19 in 7.0 mi NNW 3.5 mph - N/A   Overcast
2:17 AM 51.8 °F - 51.8 °F 100% 30.19 in 1.8 mi NW 3.5 mph - N/A   Overcast
2:31 AM 51.8 °F - 51.8 °F 100% 30.19 in 2.5 mi Calm Calm - N/A   Overcast
2:38 AM 51.8 °F - 51.8 °F 100% 30.19 in 5.0 mi Calm Calm - N/A   Overcast
3:53 AM 50.0 °F - 48.0 °F 93% 30.21 in 5.0 mi Calm Calm - N/A   Mostly Cloudy
4:12 AM 48.2 °F - 48.2 °F 100% 30.21 in 4.0 mi Calm Calm - N/A   Scattered Clouds
4:20 AM 48.2 °F - 46.4 °F 93% 30.21 in 2.5 mi Calm Calm - N/A   Partly Cloudy
4:27 AM 48.2 °F - 46.4 °F 93% 30.21 in 4.0 mi Calm Calm - N/A   Clear
4:38 AM 48.2 °F - 46.4 °F 93% 30.21 in 6.0 mi Calm Calm - N/A   Scattered Clouds
4:53 AM 48.0 °F - 46.9 °F 96% 30.22 in 1.2 mi Calm Calm - N/A   Mostly Cloudy
5:13 AM 48.2 °F - 48.2 °F 100% 30.22 in 0.8 mi West 4.6 mph - N/A   Overcast
5:23 AM 48.2 °F - 48.2 °F 100% 30.22 in 0.2 mi Calm Calm - N/A Fog Fog
5:53 AM 48.0 °F - 46.9 °F 96% 30.23 in 0.2 mi West 3.5 mph - N/A Fog Fog
6:53 AM 46.9 °F - 45.0 °F 93% 30.25 in 0.5 mi Calm Calm - N/A Fog Fog
7:15 AM 46.4 °F 45.2 °F 46.4 °F 100% 30.25 in 0.2 mi West 3.5 mph - N/A Fog Fog
7:53 AM 46.9 °F - 45.0 °F 93% 30.26 in 0.2 mi WNW 3.5 mph - N/A Fog Fog
8:53 AM 46.9 °F - 46.0 °F 97% 30.29 in 0.2 mi Calm Calm - N/A Fog Fog
10:53 AM 48.9 °F - 48.0 °F 97% 30.32 in 0.2 mi Calm Calm - N/A Fog Fog
11:28 AM 50.0 °F - 48.2 °F 94% 30.32 in - Calm Calm - N/A   Overcast
11:35 AM 51.8 °F - 48.2 °F 88% 30.32 in 0.8 mi East 4.6 mph - N/A   Mist
11:43 AM 50.0 °F - 48.2 °F 94% 30.32 in 1.5 mi Calm Calm - N/A   Overcast
11:53 AM 51.1 °F - 50.0 °F 96% 30.32 in 2.0 mi Calm Calm - N/A   Overcast
12:11 PM 51.8 °F - 50.0 °F 94% 30.32 in 3.0 mi Calm Calm - N/A   Overcast
12:38 PM 51.8 °F - 50.0 °F 94% 30.32 in 5.0 mi Calm Calm - N/A   Overcast
12:53 PM 51.1 °F - 50.0 °F 96% 30.32 in 6.0 mi Calm Calm - N/A   Overcast
1:06 PM 53.6 °F - 50.0 °F 88% 30.31 in 5.0 mi Calm Calm - N/A   Overcast
1:31 PM 55.4 °F - 50.0 °F 82% 30.30 in 6.0 mi Variable 3.5 mph - N/A   Haze
1:53 PM 57.0 °F - 51.1 °F 81% 30.29 in 8.0 mi NNW 5.8 mph - N/A   Partly Cloudy
2:44 PM 57.2 °F - 51.8 °F 82% 30.28 in 8.0 mi Calm Calm - N/A   Mostly Cloudy
2:53 PM 59.0 °F - 51.1 °F 75% 30.28 in 9.0 mi Calm Calm - N/A   Overcast
4:07 PM 60.8 °F - 51.8 °F 72% 30.27 in 10.0 mi Calm Calm - N/A   Scattered Clouds
4:53 PM 60.1 °F - 51.1 °F 72% 30.26 in 10.0 mi Calm Calm - N/A   Partly Cloudy
5:09 PM 60.8 °F - 51.8 °F 72% 30.26 in 10.0 mi East 5.8 mph - N/A   Mostly Cloudy
5:34 PM 57.2 °F - 51.8 °F 82% 30.25 in 10.0 mi Calm Calm - N/A   Scattered Clouds
5:53 PM 57.9 °F - 51.1 °F 78% 30.25 in 10.0 mi Calm Calm - N/A   Partly Cloudy
6:10 PM 57.2 °F - 51.8 °F 82% 30.25 in 10.0 mi Calm Calm - N/A   Mostly Cloudy
6:53 PM 57.0 °F - 53.1 °F 87% 30.25 in 10.0 mi East 3.5 mph - N/A   Overcast
7:53 PM 55.9 °F - 52.0 °F 87% 30.24 in 8.0 mi Calm Calm - N/A   Overcast
8:07 PM 55.4 °F - 51.8 °F 88% 30.24 in 8.0 mi Calm Calm - N/A   Overcast
8:51 PM 55.4 °F - 51.8 °F 88% 30.23 in 8.0 mi North 3.5 mph - N/A   Overcast
8:53 PM 55.0 °F - 52.0 °F 89% 30.23 in 9.0 mi North 3.5 mph - N/A   Overcast
9:53 PM 54.0 °F - 51.1 °F 90% 30.23 in 10.0 mi NNW 3.5 mph - N/A   Overcast
10:53 PM 54.0 °F - 50.0 °F 86% 30.23 in 8.0 mi NNW 3.5 mph - N/A   Overcast
11:09 PM 53.6 °F - 50.0 °F 88% 30.23 in 9.0 mi Calm Calm - N/A   Overcast
11:53 PM 54.0 °F - 50.0 °F 86% 30.22 in 10.0 mi North 4.6 mph - N/A   Overcast